Home > Weather > Portland > Past weeks

Flag for USA Past Weather in Portland, Maine, USA — Yesterday and Last 2 Weeks

Now
55 °F

Passing clouds.


Feels Like: 53 °F
Forecast: 53 / 62 °F
Wind: 7 mph from East

Location: Portland - Portland International Jetport

Current Time: May 27, 2016 at 4:32:03 AM

Latest Report: May 27, 2016 at 3:51 AM


Visibility: 10 mi

Pressure: 30.17 "Hg

Humidity: 90%

Dew Point: 52 °F

Location of PortlandLocation

Past Weather in Portland — Graph

°F

Portland Temperature Yesterday

Maximum temperature yesterday: 77 °F (at 11:51 AM)
Minimum temperature yesterday: 54 °F (at 5:51 AM)
Average temperature yesterday: 65 °F

High & Low Weather Summary for the Past Weeks

 TemperatureHumidityPressure
High77 °F (May 26, 11:51 AM)100% (May 13, 4:51 PM)30.18 "Hg (May 13, 4:51 PM)
Low40 °F (May 16, 2:51 AM)20% (May 12, 12:51 PM)29.45 "Hg (May 15, 2:51 AM)
Average57 °F65%29.94 "Hg
* Reported May 12 2:51 AM — May 27 2:51 AM, Portland, Weather by CustomWeather, © 2016

Note: Actual official high and low records may vary slightly from our data, if they occured in-between our weather recording intervals... More about our weather records

Advertising

Portland Weather History for the Previous 24 Hours

Scroll right to see more
 ConditionsComfort  
Time TempWeatherWind HumidityBarometerVisibility
2:51 AM
Fri, May 27
55 °FLight rain. Mostly cloudy.8 mph90%30.16 "Hg10 mi
1:51 AM55 °FClear.6 mph87%30.16 "Hg10 mi
12:51 AM54 °FPassing clouds.6 mph90%30.15 "Hg10 mi
11:51 PM
Thu, May 26
55 °FPassing clouds.6 mph87%30.15 "Hg10 mi
10:51 PM57 °FPassing clouds.No wind81%30.13 "Hg10 mi
9:51 PM59 °FPassing clouds.No wind72%30.12 "Hg10 mi
8:51 PM60 °FScattered clouds.No wind69%30.11 "Hg10 mi
7:51 PM62 °FMostly cloudy.8 mph67%30.11 "Hg10 mi
6:51 PM64 °FBroken clouds.6 mph63%30.10 "Hg10 mi
5:51 PM66 °FScattered clouds.9 mph56%30.08 "Hg10 mi
4:51 PM69 °FScattered clouds.12 mph55%30.07 "Hg10 mi
3:51 PM71 °FScattered clouds.12 mph53%30.07 "Hg10 mi
2:51 PM75 °FScattered clouds.10 mph50%30.06 "Hg10 mi
1:51 PM76 °FScattered clouds.10 mph47%30.06 "Hg10 mi
12:51 PM76 °FScattered clouds.8 mph48%30.06 "Hg10 mi
11:51 AM77 °FScattered clouds.12 mph42%30.08 "Hg10 mi
10:51 AM75 °FScattered clouds.10 mph50%30.08 "Hg10 mi
9:51 AM73 °FScattered clouds.7 mph55%30.08 "Hg10 mi
8:51 AM69 °FScattered clouds.6 mph63%30.09 "Hg10 mi
7:51 AM66 °FScattered clouds.5 mph68%30.10 "Hg10 mi
6:51 AM63 °FPassing clouds.5 mph84%30.08 "Hg10 mi
5:51 AM54 °FPassing clouds.No wind97%30.06 "Hg10 mi
4:51 AM57 °FPassing clouds.5 mph93%30.04 "Hg10 mi
Weather by CustomWeather, © 2016

See weather overviewHow to use our weather pages